{"data":{"norad_id":58484,"intl_designator":"2023-186M","name":"STARLINK-30991","alt_names":[],"object_type":"PAYLOAD","status":"ACTIVE","operator":null,"country":"US","launch_date":"2023-12-03","launch_site_code":"AFETR","launch_vehicle":null,"mission":null,"orbit_class":"UNKNOWN","rcs_meters":null,"size_class":null,"mass_kg":null,"dimensions":null,"purposes":["comms"],"wikipedia_slug":null,"has_3d_model":false,"image_url":null,"decayed_at":null,"tle_current":{"epoch":"2026-05-24T22:47:55.058784Z","epoch_age_seconds":89540,"freshness":"FRESH","line1":"1 58484U 23186M   26144.94994281 -.00000582  00000+0 -11611-4 0  9992","line2":"2 58484  43.0032 352.5819 0001778 262.7450  97.3200 15.27568532137540","mean_motion":15.27568532,"eccentricity":0.0001778,"inclination_deg":43.0032,"raan_deg":352.5819,"arg_perigee_deg":262.745,"mean_anomaly_deg":97.32,"bstar":-1.1611e-5,"rev_number":13754,"period_min":94.267456407645,"perigee_km":481.86351057863,"apogee_km":484.30336056552,"semimajor_km":6861.2204355721,"source":"CELESTRAK","updated_at":"2026-05-25T13:38:18.652181Z"}}}